RA43 UUEE-UWGG

Flight info

Callsign RA43
Flight time 0h 17m
Altitude 8000
Route DCT
Aircraft SU27/L-SFG/C

Departure

Time 2026-05-06 12:47
Airport Sheremetyevo International Airport (UUEE)

Arrival

Time 2026-05-06 13:05
Airport Nizhny Novgorod / Strigino International Airport (UWGG)
Time Latitude Longitude Altitude Speed Heading
2026-05-06 12:42 55.97270 37.44366 636 ft 0 kts 40°
2026-05-06 12:45 55.97315 37.44432 638 ft 16 kts 37°
2026-05-06 12:45 55.97404 37.44431 636 ft 11 kts 346°
2026-05-06 12:45 55.97456 37.44417 636 ft 16 kts 349°
2026-05-06 12:46 55.97566 37.44254 636 ft 25 kts 301°
2026-05-06 12:46 55.97712 37.44137 635 ft 22 kts 345°
2026-05-06 12:46 55.97771 37.43963 641 ft 16 kts 256°
2026-05-06 12:46 55.97764 37.43916 638 ft 1 kts 256°
2026-05-06 12:47 55.97596 37.42777 669 ft 212 kts 256°
2026-05-06 12:47 55.97113 37.39526 2236 ft 254 kts 257°
2026-05-06 12:47 55.96708 37.36767 5893 ft 218 kts 257°
2026-05-06 12:47 55.95731 37.35027 9883 ft 295 kts 103°
2026-05-06 12:48 55.95430 37.39218 10237 ft 418 kts 81°
2026-05-06 12:48 55.96060 37.45095 10249 ft 545 kts 78°
2026-05-06 12:48 55.96865 37.52270 9845 ft 609 kts 78°
2026-05-06 12:48 55.97701 37.59714 9535 ft 613 kts 78°
2026-05-06 12:49 55.98385 37.67214 9328 ft 611 kts 84°
2026-05-06 12:49 55.98604 37.74647 10140 ft 589 kts 87°
2026-05-06 12:49 55.98788 37.81824 11120 ft 569 kts 87°
2026-05-06 12:49 55.98964 37.88781 12134 ft 552 kts 87°
2026-05-06 12:50 55.99134 37.95548 13108 ft 539 kts 87°
2026-05-06 12:50 55.99299 38.02161 13996 ft 530 kts 87°
2026-05-06 12:50 55.99484 38.09471 14977 ft 658 kts 87°
2026-05-06 12:50 55.99707 38.18182 15647 ft 757 kts 87°
2026-05-06 12:51 56.00124 38.27974 16102 ft 821 kts 85°
2026-05-06 12:51 56.00598 38.38446 16696 ft 867 kts 85°
2026-05-06 12:51 56.01094 38.49433 16944 ft 904 kts 85°
2026-05-06 12:51 56.01606 38.60816 17310 ft 935 kts 85°
2026-05-06 12:52 56.02131 38.72599 17922 ft 966 kts 85°
2026-05-06 12:52 56.02664 38.84781 18442 ft 1001 kts 85°
2026-05-06 12:52 56.03241 38.97478 17976 ft 1045 kts 85°
2026-05-06 12:52 56.03862 39.10563 17949 ft 1064 kts 85°
2026-05-06 12:53 56.04500 39.23794 17893 ft 1073 kts 85°
2026-05-06 12:53 56.05171 39.37124 17763 ft 1078 kts 84°
2026-05-06 12:53 56.05877 39.50518 17836 ft 1080 kts 84°
2026-05-06 12:53 56.06584 39.63889 17954 ft 1081 kts 84°
2026-05-06 12:54 56.07292 39.77276 18052 ft 1081 kts 84°
2026-05-06 12:54 56.08001 39.90696 18141 ft 1082 kts 84°
2026-05-06 12:54 56.08714 40.04110 18207 ft 1082 kts 84°
2026-05-06 12:54 56.09428 40.17527 18254 ft 1082 kts 84°
2026-05-06 12:55 56.10144 40.30958 18325 ft 1083 kts 84°
2026-05-06 12:55 56.10856 40.44383 18376 ft 1084 kts 84°
2026-05-06 12:55 56.11569 40.57839 18419 ft 1085 kts 84°
2026-05-06 12:55 56.12285 40.71309 17987 ft 1089 kts 84°
2026-05-06 12:56 56.12797 40.80254 17588 ft 1090 kts 84°
2026-05-06 12:56 56.13848 40.98303 17585 ft 1087 kts 84°
2026-05-06 12:56 56.14638 41.11765 17636 ft 1085 kts 84°
2026-05-06 12:56 56.15426 41.25210 17678 ft 1085 kts 84°
2026-05-06 12:57 56.16212 41.38682 17699 ft 1085 kts 84°
2026-05-06 12:57 56.16995 41.52129 17717 ft 1085 kts 84°
2026-05-06 12:57 56.17769 41.65442 17729 ft 1085 kts 84°
2026-05-06 12:57 56.18558 41.79072 17758 ft 1086 kts 84°
2026-05-06 12:58 56.19338 41.92560 17758 ft 1086 kts 84°
2026-05-06 12:58 56.20115 42.06035 17773 ft 1087 kts 84°
2026-05-06 12:58 56.20884 42.19395 17785 ft 1087 kts 84°
2026-05-06 12:58 56.21658 42.32886 17792 ft 1087 kts 84°
2026-05-06 12:59 56.22433 42.46391 17797 ft 1087 kts 84°
2026-05-06 12:59 56.23208 42.59896 17798 ft 1088 kts 84°
2026-05-06 12:59 56.23732 42.69037 17782 ft 1089 kts 84°
2026-05-06 12:59 56.24450 42.81549 17392 ft 901 kts 84°
2026-05-06 13:00 56.23396 43.08846 12889 ft 641 kts 99°
2026-05-06 13:00 56.22226 43.16308 11942 ft 602 kts 130°
2026-05-06 13:01 56.19707 43.22067 11495 ft 587 kts 130°
2026-05-06 13:01 56.17158 43.27869 10261 ft 587 kts 129°
2026-05-06 13:01 56.14727 43.33797 8800 ft 591 kts 128°
2026-05-06 13:01 56.12292 43.39761 7293 ft 593 kts 125°
2026-05-06 13:02 56.12211 43.46384 7425 ft 552 kts 53°
2026-05-06 13:02 56.15053 43.50446 7342 ft 520 kts 23°
2026-05-06 13:02 56.18307 43.53186 7370 ft 514 kts 21°
2026-05-06 13:02 56.21579 43.55637 6822 ft 503 kts 19°
2026-05-06 13:03 56.24752 43.57950 5649 ft 482 kts 19°
2026-05-06 13:03 56.27499 43.60040 3467 ft 477 kts 20°
2026-05-06 13:03 56.28974 43.62487 2449 ft 314 kts 68°
2026-05-06 13:03 56.29558 43.65794 1978 ft 275 kts 72°
2026-05-06 13:04 56.30128 43.69119 1676 ft 273 kts 72°
2026-05-06 13:04 56.30654 43.72289 958 ft 251 kts 73°
2026-05-06 13:04 56.31167 43.75169 584 ft 225 kts 72°
2026-05-06 13:04 56.31565 43.77535 275 ft 168 kts 74°
2026-05-06 13:05 56.31743 43.78671 270 ft 39 kts 74°
2026-05-06 13:05 56.31804 43.78745 270 ft 13 kts 334°
2026-05-06 13:05 56.31916 43.78680 272 ft 18 kts 344°
2026-05-06 13:05 56.32015 43.78622 272 ft 2 kts 349°